Showing default

ION SCV-016, 62628

Orbit data source: Space-Track

ION SCV-016, 62628 is a payload satellite owned by D-ORBIT (IT) in SSO that was launched on Tue, 14 Jan 2025 UTC via an FALCON 9 launch vehicle from the Air Force Western Test Range (AFWTR). Payload-class satellites include a variety of spacecraft equipped with specific instruments for various scientific and technological missions. These include communications satellites like Starlink; space stations such as the ISS; scientific satellites like the Hubble; Earth observation satellites from companies like Planet Labs, Umbra, and HawkEye 360; GPS; miniature CubeSats for education and research; and military/defense satellites.

Loading next visibility...
Identifier
62628, 2025-009V
Orbit
SSO
Country
Flag of ITIT
Related business
Manufacturer
D-ORBIT
Mission
Operational Commercial Technology
Bus & Motor
ION-SC, PM200
Mass
220 kg wet, 150 kg dry
Launch date (UTC)
2025-01-14 (2 years ago)
Launch vehicle
FALCON 9
Launch site
Air Force Western Test Range (AFWTR)
Object type
Payload
Rocket body
Debris
Shape & HBR
Box, 0.3 m
Radar Cross Section
0.240 m², Large (>1 m²)

Expand to show TLE details & history
Last TLE update: 11 hours ago

TLE from 11 hours ago
0 ION SCV-016
1 62628U 25009V   26256.05029396  .00018548  00000-0  38576-3 0  9993
2 62628  97.4224 284.6729 0575227 187.7047 171.5026 14.54163107 88307
Epoch: 2026-09-13T01:12Z
TLE epoch observation values (Epoch: 2026-09-13T01:12:25.398Z)
Latitude
0.00001°
Longitude
-85.48344°
Altitude
1,119.021 km
Speed
7.082 km/s
True Right ascension
18h 58m 41s
True Declination
0° 00' 00"
Sunlit
Object was in daylight at epoch
Visualization orbit readout
Latitude
Unknown
Longitude
Unknown
Altitude
Unknown
Speed
Unknown
Apparent Right ascension
Unknown
Apparent Declination
Unknown
Sunlit
N/A
Visualization observer readout
Local Sidereal Time
04:21:20
Azimuth
Unknown
Elevation
Unknown
Doppler factor
Unknown
Orbital elements
Apogee altitude
1,116.802 km
Perigee altitude
301.446 km
Semi-major axis
7,087.261 km
Eccentricity
0.05752
Inclination
97.4224°
RAAN
284.6729°
Arg. of periapsis
187.7047°
True anomaly
172.41175°
Mean anomaly
171.5026°
Eccentric anomaly
171.96337°
Mean motion
3.63769 °/min
Orbital period
98.96 mins
BSTAR
0.00038576
Loading maneuver chart data...
Computing Atmospheric mass density...
Loading historical data...
Loading historical data...
Loading historical data...
Loading historical data...
Loading historical data...
Loading historical data...
Loading historical data...

Documentation

Showing up to 5 results
|